Alexandria, MN

3:59 AM CDT on June 25, 2017 (GMT -0500)
Chandler

Weather History for KAXN - October, 2012

Change the Weather History Date:

Friday, October 26, 2012

  Actual Average Record
Temperature  
Mean Temperature 34 °F -  
Max Temperature 39 °F 54 °F 81 °F (1955)
Min Temperature 32 °F 35 °F 18 °F (1976)
Degree Days  
Heating Degree Days 30    
Moisture  
Dew Point 20 °F    
Average Humidity 58    
Maximum Humidity 72    
Minimum Humidity 46    
Precipitation  
Precipitation 0.00 in - - ()
Sea Level Pressure  
Sea Level Pressure 30.33 in    
Wind  
Wind Speed 16 mph (West)    
Max Wind Speed 21 mph    
Max Gust Speed 28 mph    
Visibility 10 miles    
Events      
Averages and records for this station are not official NWS values.
T = Trace of Precipitation, MM = Missing Value Source: NWS Daily Summary

Daily Weather History Graph

Daily Weather History Graph

Search for Another Location

Airport or City:

Trip Planner

Search our weather history database for the weather conditions in past years. The results will help you decide how hot, cold, wet, or windy it might be!

Date:

Astronomy

Oct. 26, 2012 Rise Set
Actual Time 7:54 AM CDT 6:16 PM CDT
Civil Twilight 7:23 AM CDT 6:46 PM CDT
Nautical Twilight 6:48 AM CDT 7:21 PM CDT
Astronomical Twilight 6:13 AM CDT 7:56 PM CDT
Moon 4:38 PM CDT (10/26) 4:43 AM CDT (10/26)
Length of Visible Light 11h 23m
Length of Day
10h 22m
Waxing Gibbous, 91% of the Moon is Illuminated
Oct 26
Waxing Gibbous
Oct 29
Full
Nov 6
Last Quarter
Nov 13
New
Nov 20
First Quarter

Hourly Weather History & Observations

Time (CDT) Temp. Windchill Dew Point Humidity Pressure Visibility Wind Dir Wind Speed Gust Speed Precip Events Conditions
12:53 AM 34.0 °F 23.0 °F 24.1 °F 67% 30.21 in 10.0 mi WNW 18.4 mph 26.5 mph N/A   Overcast
1:53 AM 33.1 °F 22.2 °F 25.0 °F 72% 30.22 in 10.0 mi WNW 17.3 mph - N/A   Overcast
2:53 AM 33.1 °F 21.2 °F 24.1 °F 70% 30.24 in 10.0 mi WNW 20.7 mph 26.5 mph N/A   Overcast
3:53 AM 33.1 °F 23.4 °F 24.1 °F 70% 30.25 in 10.0 mi WNW 13.8 mph 23.0 mph N/A   Overcast
4:53 AM 33.1 °F 21.2 °F 23.0 °F 66% 30.26 in 10.0 mi WNW 20.7 mph 27.6 mph N/A   Overcast
6:53 AM 33.1 °F 22.2 °F 21.0 °F 61% 30.31 in 10.0 mi WNW 17.3 mph 23.0 mph N/A   Overcast
8:53 AM 33.1 °F 22.6 °F 19.0 °F 56% 30.35 in 10.0 mi WNW 16.1 mph 26.5 mph N/A   Overcast
9:53 AM 33.1 °F 21.9 °F 21.0 °F 61% 30.36 in 10.0 mi WNW 18.4 mph 24.2 mph N/A   Overcast
10:53 AM 34.0 °F 23.0 °F 19.9 °F 56% 30.37 in 10.0 mi West 18.4 mph 23.0 mph N/A   Overcast
11:53 AM 35.1 °F 25.2 °F 19.0 °F 52% 30.37 in 10.0 mi WNW 16.1 mph 26.5 mph N/A   Overcast
12:53 PM 36.0 °F 26.3 °F 19.9 °F 52% 30.37 in 10.0 mi West 16.1 mph 24.2 mph N/A   Overcast
1:53 PM 37.0 °F 27.4 °F 18.0 °F 46% 30.36 in 10.0 mi West 17.3 mph 24.2 mph N/A   Overcast
2:53 PM 36.0 °F 25.6 °F 19.0 °F 50% 30.35 in 10.0 mi West 18.4 mph 26.5 mph N/A   Overcast
3:53 PM 36.0 °F 25.0 °F 18.0 °F 48% 30.35 in 10.0 mi WNW 20.7 mph 26.5 mph N/A   Overcast
4:53 PM 36.0 °F 27.1 °F 17.1 °F 46% 30.35 in 10.0 mi WNW 13.8 mph - N/A   Mostly Cloudy
5:53 PM 35.1 °F 27.4 °F 17.1 °F 48% 30.36 in 10.0 mi West 10.4 mph - N/A   Overcast
6:53 PM 35.1 °F 26.4 °F 18.0 °F 50% 30.36 in 10.0 mi WNW 12.7 mph - N/A   Overcast
7:53 PM 34.0 °F 27.2 °F 18.0 °F 52% 30.37 in 10.0 mi West 8.1 mph - N/A   Overcast
8:53 PM 33.1 °F 25.5 °F 19.9 °F 59% 30.36 in 10.0 mi West 9.2 mph - N/A   Overcast
9:53 PM 33.1 °F 26.9 °F 19.9 °F 59% 30.36 in 10.0 mi WSW 6.9 mph - N/A   Overcast
10:53 PM 32.0 °F 27.5 °F 19.9 °F 61% 30.36 in 10.0 mi WSW 4.6 mph - N/A   Overcast
11:53 PM 32.0 °F 25.6 °F 23.0 °F 69% 30.35 in 10.0 mi SW 6.9 mph - N/A   Overcast